Regional Weather Roundup
Issued by NWS

Home | Current Version | Previous Version | Graphics & Text | Print | Product List | Glossary On
Versions: 1 2 3 4 5 6 7 8 9 10 11 12 13 14 15 16 17 18 19 20 21 22 23 24 25 26 27 28 29 30 31 32 33 34 35 36 37 38 39 40 41 42 43 44 45 46 47 48 49 50
000
ASUS45 KABQ 211001
RWRNM
NEW MEXICO REGIONAL WEATHER ROUNDUP
NATIONAL WEATHER SERVICE ALBUQUERQUE NM
400 AM MDT THU SEP 21 2017

NOTE: "FAIR" MEANS FEW OR NO CLOUDS BELOW 12,000 FEET AGL WITH NO
       SIGNIFICANT WEATHER OR OBSTRUCTIONS TO VISION.

      THIS PRODUCT IS RELEASED AS TWO VERSIONS.  ONE VERSION NEAR
      THE TOP OF THE HOUR CONTAINING PRELIMINARY DATA FROM ALBUQUERQUE
      AND OTHER STATIONS.  A FINAL VERSION WITH ADDITIONAL DATA IS
      ISSUED ABOUT 10 MINUTES AFTER THE HOUR.

NMZ501-503-504-510>518-211100-
NORTHWEST PLATEAU/NORTHCENTRAL MOUNTAINS

CITY           SKY/WX    TMP DP  RH WIND       PRES   REMARKS
FARMINGTON     FAIR      51  31  46 NE5       29.98F
LOS ALAMOS     FAIR      62  30  30 S7        30.13S
SANTA FE       FAIR      56  28  34 VRB5      30.07F
TAOS           FAIR      42  22  44 NE5       30.14S
ANGEL FIRE     FAIR      32  25  74 CALM      30.20S

$$
NMZ402-403-502-505>509-211100-
WESTCENTRAL MOUNTAINS/SOUTHWEST MOUNTAINS

CITY           SKY/WX    TMP DP  RH WIND       PRES   REMARKS
GALLUP         FAIR      56  32  40 S10       30.08S
GRANTS         FAIR      50  34  53 S3        30.11S
SILVER CITY    MOCLDY    53  43  67 NW8       30.07S

$$
NMZ407-409-411-412-211100-
SOUTHERN DESERTS

CITY           SKY/WX    TMP DP  RH WIND       PRES   REMARKS
DEMING         FAIR      59  44  57 SE3       30.01S
LAS CRUCES     FAIR      67  40  37 W10       30.00R
HOLLOMAN AFB   CLEAR     68  39  34 SE7       29.98F
ALAMOGORDO     FAIR      66  39  37 S7        29.97S
T OR C         FAIR      66  37  34 NW8       29.99F

$$
NMZ519>523-211100-
CENTRAL VALLEYS/CENTRAL HIGHLANDS

CITY           SKY/WX    TMP DP  RH WIND       PRES   REMARKS
ALBUQUERQUE    FAIR      61  33  35 E5        30.03S
CLINES CORNERS FAIR      56  32  40 W15       30.11F
BELEN          FAIR      59  32  35 N3        30.02S
SOCORRO        FAIR      56  31  38 S5        30.00R

$$
NMZ524>526-539-540-211100-
SOUTHCENTRAL MOUNTAINS

CITY           SKY/WX    TMP DP  RH WIND       PRES   REMARKS
RUIDOSO        NOT AVBL

$$
NMZ527>531-211100-
NORTHEAST HIGHLANDS/NORTHEAST PLAINS

CITY           SKY/WX    TMP DP  RH WIND       PRES   REMARKS
LAS VEGAS      FAIR      51  33  50 S12       30.07F
RATON          FAIR      44  35  70 N6        30.02F
CLAYTON        FAIR      49  40  71 SW6       29.94S

$$
NMZ532>537-211100-
EASTCENTRAL PLAINS

CITY           SKY/WX    TMP DP  RH WIND       PRES   REMARKS
SANTA ROSA     FAIR      64  37  36 CALM      29.95S
TUCUMCARI      FAIR      55  42  61 SW6       29.89F
CANNON AFB     NOT AVBL
CLOVIS AIRPORT FAIR      52  44  74 S6        29.95S

$$
NMZ028-029-538-211100-
SOUTHEAST PLAINS

CITY           SKY/WX    TMP DP  RH WIND       PRES   REMARKS
ROSWELL        FAIR      63  41  44 CALM      29.92S
ARTESIA        FAIR      66  41  39 W9        29.92S
CARLSBAD       FAIR      69  45  41 SW8       29.89F
HOBBS          FAIR      64  55  72 SW8       29.94F


$$



USA.gov is the U.S. government's official web portal to all federal, state and local government web resources and services.